sat.trackr.live / text

‹ back to catalog

ONEWEB-0101

NORAD 48049 · 2021-025H

PAYLOAD ACTIVE UNKNOWN

§ Identity

Operator
Country
UK
Launch date
2021-03-25
Launch site
VOSTO
Launch vehicle
Mass (kg)
RCS (m²)

Purposes: comms

External: N2YO · Heavens-Above · Gunter

§ Orbital elements

Epoch: 2026-09-13T01:15:36.751680Z

Period
109.63 min
Inclination
87.8922°
Eccentricity
0.0001820
Mean motion
13.13469654 rev/d
Perigee alt
1,208.4 km
Apogee alt
1,211.1 km
Semi-major
7,587.9 km
B*
8.0761e-4
RAAN
302.7430°
Arg perigee
92.1282°
Mean anomaly
268.0056°
Rev number
26,503

§ Raw data

ONEWEB-01011 48049U 21025H   26256.05250870  .00000308  00000+0  80761-3 0  99982 48049  87.8922 302.7430 0001820  92.1282 268.0056 13.13469654265032

JSON: /api/v1/satellites/48049 · /tle

For live sub-satellite position, see the globe view (requires WebGL).

§ Visibility from observer

Set your observer location to see the next 7 days of passes ≥ 10°. The values pass through the URL so the page stays shareable.

No JS? Fill the form by hand. The geolocation button needs JavaScript.